Terug naar catalogus

NAVSTAR 80

USA 309

ActiefNavigatieHEO
NORAD 46826·PAYLOAD·🇺🇸 United States

Gelanceerd Nov 5, 2020 vanaf Cape Canaveral Space Force Station

Loading…

Volgende Passages (komende 24 uur)

TLE

VersSource: CelesTrak SupGP

Epoch: Sep 16, 2026, 16:44 UTC

1 46826C 20078A   26259.69756944  .00000000  00000+0  00000+0 0  2594
2 46826  53.9676 207.0702 0076153 208.4049 289.8628  2.00565297    11

Volg NAVSTAR 80 in realtime met AllMySat

Download on the App Store